Probability
0 0 0 0 0 0 0 0 0 0 0 0 0 0 0 0 0 0 0 0 0 0 16 29 39 65 81 65 58 87 100 100 100 100 100 68 61 87 100 100 97 100 42 3
0 0 0 0 0 0 0 0 0 0 0 0 0 0 0 0 0 0 0 0 0 0 3 29 71 71 90 97 81 94 100 71 77 90 100 100 100 100 100 97 100 94 26 0
0 0 0 0 0 0 0 0 0 0 0 0 0 0 0 0 0 0 0 0 0 0 3 6 10 35 71 100 100 100 97 77 90 100 94 90 81 94 94 100 97 39 3 0
0 0 0 0 0 0 0 0 0 0 0 0 0 0 0 0 0 0 0 0 0 0 3 3 3 23 61 94 100 100 100 100 94 94 90 90 100 100 29 94 100 74 19 10
0 0 0 0 0 0 0 0 0 0 0 0 0 0 0 0 0 0 0 0 0 3 3 3 0 0 23 61 94 97 100 100 100 100 100 100 100 97 94 94 90 32 19 19
0 0 0 0 0 0 0 0 0 0 0 0 0 0 0 0 0 0 0 0 0 0 3 0 0 0 6 58 90 94 100 100 100 100 100 100 100 100 94 58 26 10 10 55
0 0 0 0 0 0 0 0 0 0 0 0 0 0 0 0 0 0 0 0 0 0 3 6 16 39 71 84 94 97 100 100 100 100 100 100 100 74 42 10 6 10 0 3
0 0 0 0 0 0 0 0 0 0 0 0 0 0 0 0 0 0 0 0 0 0 0 29 55 84 100 94 94 97 100 100 100 100 100 100 100 77 26 16 23 10 0 0
0 0 0 0 0 0 0 0 0 0 0 0 0 0 0 0 0 0 0 0 0 0 0 58 97 97 100 100 97 97 100 100 100 97 97 94 65 65 77 58 39 10 0 0
0 0 0 0 0 0 0 0 0 0 0 0 0 0 0 0 0 0 0 0 0 0 0 13 71 100 100 100 100 100 97 100 100 100 97 94 61 77 74 23 29 3 0 0
0 0 0 0 0 0 0 0 0 0 0 0 0 0 0 0 0 0 0 0 0 0 0 0 16 84 97 100 100 100 100 100 100 100 100 97 84 42 23 32 26 10 0 0
0 0 0 0 0 0 0 0 0 0 0 0 0 0 0 0 0 0 0 0 0 0 0 0 0 10 77 97 100 100 100 100 100 100 100 97 87 74 29 3 32 35 3 0
0 0 0 0 0 0 0 0 0 0 0 0 0 0 0 0 0 0 0 0 0 0 0 0 0 0 10 61 97 100 100 100 100 100 97 97 97 77 32 0 3 39 6 0
0 0 0 0 0 0 0 0 0 0 0 0 0 0 0 0 0 0 0 0 0 0 0 0 0 0 0 13 77 100 100 100 100 100 97 97 94 87 35 13 0 0 0 0
0 0 0 0 0 0 0 0 0 0 0 0 0 0 0 0 0 0 0 0 0 0 0 0 0 0 0 6 71 100 100 100 100 100 97 97 94 90 45 16 10 0 0 0
0 0 0 0 0 0 0 0 0 0 0 0 0 0 0 0 0 0 0 0 0 0 0 0 0 3 6 6 65 94 100 100 97 97 94 100 97 94 90 65 35 19 16 16
0 0 0 0 0 0 0 0 0 0 0 0 0 0 0 0 0 0 0 0 0 0 0 0 3 55 55 81 94 97 100 100 97 97 97 97 100 100 100 94 81 68 55 42
0 0 0 0 0 0 0 0 0 0 0 0 0 0 0 0 0 0 0 0 0 0 0 0 39 68 87 94 94 94 94 100 100 100 100 100 100 100 100 100 97 94 65 61
0 0 0 0 0 0 0 0 0 0 0 0 0 0 0 0 0 0 0 0 0 0 0 0 3 3 6 10 19 35 52 61 74 74 81 90 97 100 97 97 100 90 94 84
0 0 0 0 0 0 0 0 0 0 0 0 0 0 0 0 0 0 0 0 0 0 0 0 0 0 0 0 0 0 0 0 0 0 6 26 45 68 77 87 90 77 81 74
0 0 0 0 0 0 0 0 0 0 0 0 0 0 0 0 0 0 3 0 0 0 0 0 0 0 0 0 0 0 0 0 0 0 0 0 0 0 0 0 3 13 6 29
0 0 0 0 0 0 0 0 0 0 0 0 0 0 0 0 0 0 3 0 0 0 0 0 0 0 0 0 0 0 0 0 0 0 0 0 0 0 0 0 0 0 0 0
0 0 0 0 0 0 0 0 0 0 0 0 0 0 0 0 0 0 0 0 0 0 0 0 0 0 0 0 0 0 0 0 0 0 0 0 0 0 0 0 0 0 0 0
0 0 0 0 0 0 0 0 0 0 0 0 0 0 0 0 0 0 0 0 0 0 0 0 0 0 0 0 0 0 0 0 0 0 0 0 0 0 0 0 0 0 0 0
0 0 0 0 0 0 0 0 0 0 0 0 0 0 0 0 0 0 0 0 0 0 0 0 0 0 0 0 0 0 0 0 0 0 0 0 0 0 0 0 0 0 0 0
0 0 0 0 0 0 0 0 0 0 0 0 0 0 0 0 0 0 0 0 0 0 0 0 0 0 0 0 0 0 0 0 0 0 0 0 0 0 0 0 0 0 0 0
Height
5844 5847 5847 5847 5848 5850 5852 5854 5857 5858 5859 5863 5863 5865 5867 5865 5865 5865 5865 5865 5865 5865 5865 5864 5864 5863 5863 5862 5860 5859 5858 5857 5855 5853 5851 5849 5847 5844 5843 5843 5841 5840 5839 5837
5842 5842 5842 5842 5843 5844 5845 5846 5849 5850 5851 5854 5856 5857 5859 5860 5861 5859 5859 5860 5860 5860 5860 5859 5859 5859 5858 5856 5855 5854 5853 5852 5850 5848 5847 5845 5843 5840 5839 5837 5836 5834 5834 5833
5837 5838 5838 5838 5838 5839 5839 5840 5841 5842 5845 5847 5849 5852 5852 5854 5855 5854 5855 5855 5855 5855 5855 5855 5854 5854 5852 5850 5849 5848 5846 5846 5845 5843 5841 5839 5838 5836 5835 5832 5830 5829 5828 5828
5832 5830 5832 5833 5833 5833 5834 5834 5834 5836 5839 5839 5840 5843 5845 5847 5848 5849 5849 5850 5851 5851 5851 5850 5849 5848 5847 5845 5843 5842 5840 5839 5838 5837 5835 5833 5832 5830 5830 5828 5825 5823 5822 5820
5825 5826 5825 5826 5826 5828 5829 5829 5829 5830 5830 5832 5834 5834 5839 5840 5841 5842 5842 5843 5844 5845 5845 5844 5843 5842 5841 5839 5838 5836 5835 5833 5832 5830 5828 5826 5824 5822 5821 5819 5817 5816 5814 5814
5822 5821 5820 5820 5821 5824 5823 5823 5823 5822 5823 5825 5827 5828 5831 5832 5833 5835 5836 5836 5838 5838 5838 5838 5837 5836 5834 5833 5831 5830 5829 5828 5826 5824 5821 5818 5817 5814 5812 5810 5809 5808 5807 5809
5815 5815 5814 5815 5816 5817 5819 5820 5819 5818 5817 5818 5819 5822 5825 5824 5827 5829 5830 5830 5831 5832 5832 5832 5831 5830 5828 5827 5826 5825 5823 5822 5820 5817 5814 5812 5809 5807 5804 5803 5803 5801 5801 5802
5810 5809 5807 5808 5810 5811 5812 5814 5816 5815 5814 5812 5813 5816 5818 5819 5820 5822 5824 5824 5825 5826 5827 5826 5825 5824 5823 5821 5819 5817 5816 5815 5812 5809 5807 5804 5802 5800 5799 5797 5797 5796 5796 5795
5802 5802 5799 5799 5801 5803 5804 5805 5808 5810 5807 5808 5810 5812 5815 5814 5815 5817 5818 5818 5819 5820 5820 5819 5819 5818 5816 5814 5812 5811 5809 5807 5805 5802 5800 5797 5796 5795 5794 5793 5792 5792 5792 5791
5794 5795 5794 5791 5793 5795 5798 5798 5802 5802 5801 5802 5803 5804 5808 5808 5810 5812 5812 5812 5812 5813 5813 5813 5813 5812 5810 5807 5805 5805 5804 5801 5798 5795 5793 5791 5790 5789 5789 5789 5788 5788 5787 5787
5787 5788 5787 5787 5787 5788 5789 5791 5792 5792 5794 5797 5797 5801 5800 5803 5805 5806 5806 5805 5804 5804 5805 5805 5805 5805 5803 5801 5800 5799 5797 5795 5792 5790 5787 5786 5785 5784 5784 5784 5784 5784 5783 5783
5779 5780 5779 5780 5780 5779 5780 5781 5784 5786 5787 5789 5790 5795 5794 5797 5799 5799 5799 5799 5798 5798 5798 5798 5798 5798 5797 5796 5795 5792 5791 5789 5787 5785 5782 5781 5779 5779 5779 5779 5780 5779 5779 5779
5773 5773 5772 5772 5774 5773 5773 5774 5775 5776 5777 5780 5782 5787 5786 5789 5791 5792 5792 5793 5793 5794 5793 5792 5793 5793 5791 5790 5788 5787 5785 5783 5781 5779 5777 5776 5775 5774 5774 5774 5773 5773 5774 5774
5765 5764 5764 5765 5764 5764 5765 5766 5766 5765 5767 5771 5773 5776 5778 5780 5783 5784 5787 5788 5788 5789 5789 5788 5786 5785 5784 5784 5782 5781 5779 5776 5775 5773 5771 5771 5770 5769 5769 5768 5767 5767 5767 5768
5755 5754 5755 5756 5756 5757 5759 5759 5758 5758 5759 5761 5764 5766 5768 5770 5771 5774 5778 5779 5781 5782 5781 5780 5780 5780 5779 5777 5775 5773 5771 5769 5768 5767 5765 5766 5765 5763 5762 5762 5761 5760 5760 5761
5746 5745 5745 5748 5749 5750 5753 5754 5754 5753 5752 5753 5754 5757 5757 5757 5760 5764 5766 5767 5771 5773 5772 5773 5774 5773 5773 5771 5768 5766 5765 5763 5763 5763 5762 5761 5759 5757 5756 5756 5755 5754 5754 5754
5738 5737 5737 5740 5743 5745 5748 5748 5749 5749 5748 5748 5748 5748 5750 5750 5751 5754 5758 5760 5763 5764 5765 5767 5767 5766 5766 5764 5763 5762 5761 5757 5754 5754 5756 5755 5753 5751 5750 5750 5749 5748 5747 5746
5733 5730 5731 5734 5738 5741 5744 5744 5746 5745 5746 5746 5745 5744 5745 5745 5746 5749 5751 5754 5757 5759 5760 5760 5760 5760 5760 5759 5759 5758 5756 5751 5750 5747 5749 5748 5746 5744 5742 5741 5740 5740 5739 5739
5726 5725 5727 5730 5733 5737 5739 5742 5742 5743 5745 5744 5742 5743 5744 5743 5744 5746 5749 5752 5753 5754 5754 5755 5755 5756 5757 5756 5755 5753 5751 5749 5746 5744 5742 5740 5738 5736 5735 5733 5731 5730 5730 5730
5723 5722 5723 5725 5729 5732 5735 5737 5740 5743 5743 5744 5742 5742 5743 5743 5745 5747 5749 5751 5752 5752 5753 5754 5754 5754 5753 5752 5750 5749 5747 5745 5742 5740 5737 5734 5731 5729 5727 5726 5724 5723 5722 5721
5720 5717 5718 5719 5722 5725 5729 5733 5738 5741 5740 5741 5742 5743 5744 5744 5746 5748 5749 5749 5751 5752 5752 5753 5752 5751 5749 5747 5745 5744 5742 5740 5737 5734 5731 5727 5724 5721 5720 5719 5718 5716 5714 5712
5712 5711 5711 5714 5717 5722 5723 5727 5731 5734 5735 5737 5739 5742 5744 5746 5746 5747 5748 5748 5749 5751 5752 5751 5749 5747 5746 5744 5741 5739 5737 5735 5732 5728 5724 5721 5718 5716 5714 5712 5711 5709 5706 5704
5706 5705 5705 5709 5713 5715 5718 5720 5726 5731 5734 5737 5740 5743 5745 5746 5746 5746 5747 5748 5749 5750 5750 5748 5746 5744 5742 5740 5738 5735 5733 5730 5726 5723 5719 5717 5715 5712 5710 5708 5706 5702 5698 5695
5706 5702 5702 5705 5709 5712 5714 5718 5723 5729 5732 5736 5740 5743 5745 5745 5745 5746 5746 5747 5748 5748 5747 5745 5743 5742 5740 5738 5735 5732 5729 5726 5723 5719 5716 5713 5711 5709 5707 5705 5701 5697 5692 5685
5710 5705 5703 5705 5708 5713 5716 5720 5723 5727 5731 5735 5740 5743 5744 5745 5746 5745 5745 5745 5746 5746 5744 5742 5742 5740 5738 5736 5733 5730 5726 5723 5720 5716 5713 5709 5707 5705 5703 5701 5697 5692 5686 5679
5709 5706 5704 5706 5710 5714 5717 5720 5723 5726 5728 5734 5739 5742 5743 5744 5744 5744 5744 5745 5744 5744 5742 5741 5740 5738 5735 5733 5731 5728 5725 5721 5717 5713 5710 5707 5705 5703 5700 5698 5694 5689 5683 5677
Wind_Speed
35 37 41 43 43 42 43 43 41 38 36 33 31 28 25 24 21 17 17 19 22 23 22 21 20 22 21 21 22 24 24 25 26 24 23 23 23 18 24 21 22 24 23 21
33 30 29 34 39 41 40 41 39 34 32 31 31 30 29 27 25 22 20 21 24 25 24 22 22 22 22 23 25 26 26 26 26 26 26 25 24 23 25 24 22 23 23 23
33 32 28 25 22 23 24 27 32 31 27 25 26 25 27 25 26 26 24 22 23 25 25 24 23 21 24 26 28 29 29 29 29 28 29 28 27 28 29 31 30 28 26 25
28 36 34 26 21 22 23 24 27 28 28 30 30 28 27 26 26 26 25 23 22 25 25 25 25 24 26 27 28 29 30 30 31 31 31 30 30 31 32 33 33 31 29 28
24 23 21 21 25 27 25 24 25 30 31 33 30 30 25 26 30 28 26 25 25 25 26 27 27 26 27 28 29 31 32 32 32 32 33 33 33 33 33 31 31 31 28 27
24 23 23 24 26 26 26 27 28 29 27 33 25 25 23 20 21 22 25 25 25 26 27 27 26 26 27 29 31 32 32 31 31 33 34 34 35 34 32 28 26 25 23 24
23 26 28 28 29 28 28 28 25 25 29 28 25 26 24 23 22 23 24 25 25 25 25 24 24 26 27 30 31 31 31 31 31 31 31 31 32 32 29 25 22 20 19 21
23 25 28 29 30 30 27 26 25 27 30 31 27 25 25 27 27 24 22 23 22 22 21 22 24 26 29 31 32 32 31 31 30 30 28 27 26 26 24 20 17 16 15 14
23 23 24 25 26 27 28 27 28 30 33 32 30 27 25 26 26 21 18 18 18 18 20 23 25 27 29 30 29 30 29 30 29 27 27 25 23 21 20 17 15 14 12 12
25 23 22 23 22 22 25 27 28 28 31 31 31 33 27 22 22 20 19 19 19 22 24 27 29 29 29 28 28 26 24 27 27 26 25 25 22 21 19 16 14 14 13 13
25 24 22 20 22 21 23 24 26 27 29 30 28 29 27 20 19 19 21 24 26 27 26 27 27 26 26 26 27 24 25 27 27 24 23 22 21 19 18 16 13 12 13 14
25 24 24 23 23 23 23 25 26 28 27 28 28 26 22 17 17 20 23 27 29 29 27 28 25 23 24 25 26 26 28 28 27 23 21 20 19 19 19 18 15 13 13 15
26 23 23 21 24 23 23 24 24 29 33 33 32 25 24 20 21 22 26 30 30 26 27 27 24 24 26 27 26 27 27 28 28 23 20 19 18 19 21 21 20 18 17 17
26 23 23 21 20 20 21 25 27 30 34 35 35 33 31 28 29 31 30 30 29 26 26 25 22 23 26 27 29 30 29 29 27 23 21 19 20 21 22 24 24 23 22 21
27 27 26 23 21 20 18 17 19 19 24 32 34 33 33 31 35 35 34 34 28 24 27 25 23 23 25 29 30 29 29 27 23 22 21 20 21 20 21 22 23 24 23 23
25 23 24 22 22 21 18 20 20 18 15 21 27 29 31 32 33 35 35 35 30 27 30 29 29 30 27 23 23 24 24 20 21 21 23 24 21 19 18 18 19 21 23 23
22 20 20 20 21 20 17 18 17 17 15 13 18 23 25 28 27 25 25 30 34 35 34 34 31 28 23 19 18 18 17 22 23 20 23 23 21 22 22 21 22 22 23 24
20 18 15 15 20 15 16 16 10 8 7 8 12 15 18 19 17 17 19 21 24 26 27 26 24 21 19 18 18 18 18 22 20 16 21 22 23 25 27 27 25 24 24 25
20 12 8 9 11 12 14 14 10 7 5 3 4 8 9 4 7 9 11 12 14 15 14 11 11 11 13 17 19 19 17 17 18 19 22 25 27 28 27 26 25 25 25 25
22 11 9 11 13 13 14 15 14 9 11 7 8 1 4 3 6 6 6 6 6 4 4 4 7 10 14 17 17 16 17 18 19 22 25 26 26 26 24 23 23 24 24 25
21 14 14 13 16 19 12 16 17 16 17 13 10 6 4 4 6 7 7 6 5 5 6 7 10 12 15 15 15 16 17 18 20 22 23 24 24 23 21 21 21 22 22 24
21 15 15 15 16 18 16 17 22 23 21 19 14 9 7 6 6 5 6 6 7 8 10 11 12 12 12 12 14 14 16 18 19 21 21 21 21 20 19 19 20 21 23 25
20 10 13 16 19 19 17 21 25 24 24 21 14 11 9 6 3 2 3 4 7 9 12 14 12 10 11 11 11 14 16 17 18 19 19 17 16 16 16 16 18 21 24 27
24 12 10 16 22 22 17 24 27 26 22 19 13 11 10 6 2 2 1 4 7 11 12 11 10 9 9 10 13 14 16 17 16 16 15 13 12 13 14 15 18 21 24 27
26 16 5 14 23 22 17 29 30 24 24 22 15 12 10 5 2 1 2 5 9 12 11 10 9 8 9 11 13 14 15 15 15 14 13 12 12 12 13 14 17 21 23 24
26 15 5 9 19 22 16 21 30 29 29 23 15 12 9 4 2 1 4 6 9 12 13 12 10 9 8 10 11 12 13 14 14 12 12 11 11 11 11 11 14 17 18 18
Wind_Direction
247 246 246 245 244 242 244 247 248 246 249 250 252 253 256 259 256 256 261 265 268 270 279 285 294 296 291 287 286 290 289 285 281 282 286 286 294 296 286 279 276 280 278 265
253 253 252 250 245 242 243 247 246 245 244 244 250 254 252 250 249 252 261 261 263 271 276 285 291 291 289 287 286 285 284 284 282 284 288 289 287 284 282 280 277 278 275 262
273 267 262 263 256 241 249 253 244 239 241 248 249 251 253 251 248 257 258 257 262 270 278 287 289 287 284 284 286 287 288 288 289 288 289 287 281 277 279 279 278 277 270 259
281 288 290 286 282 274 269 260 251 250 250 251 250 254 254 247 249 258 254 255 263 271 278 284 284 283 281 282 283 285 288 290 289 287 286 285 283 280 280 280 279 275 263 256
267 272 278 271 266 272 263 263 255 259 258 256 255 263 262 247 252 252 254 259 262 268 278 282 281 279 279 281 285 289 291 290 287 284 284 283 281 281 283 283 280 273 260 254
260 255 252 250 255 257 253 260 261 251 250 254 252 260 263 242 240 248 256 259 262 268 273 275 275 276 282 287 291 291 290 287 285 284 284 282 281 280 282 282 276 271 264 255
266 258 250 244 244 250 257 265 273 259 256 264 260 262 258 252 257 262 258 258 262 266 268 270 275 282 288 291 292 292 289 289 287 286 286 283 280 278 276 275 270 265 260 255
271 270 264 257 255 254 252 253 252 263 274 279 275 271 263 261 265 264 256 252 252 257 265 273 278 285 291 293 294 293 292 292 293 290 290 292 285 276 271 267 262 256 251 250
278 274 273 269 262 258 254 250 250 257 266 267 266 263 259 260 260 261 260 259 261 267 271 274 280 286 288 291 292 293 292 289 293 296 289 295 286 275 269 261 254 246 246 252
284 276 273 275 270 260 252 249 255 262 262 262 261 256 254 252 258 257 259 264 267 270 273 279 283 284 285 288 290 291 292 292 296 302 296 291 286 276 269 259 251 247 250 253
283 283 273 266 265 259 256 254 253 253 257 259 259 258 255 257 257 258 262 267 272 274 274 276 279 282 284 285 288 291 294 301 301 300 300 293 284 277 268 262 255 249 247 244
281 281 277 260 257 254 254 254 254 253 250 247 252 256 260 262 260 263 266 266 269 273 280 281 281 283 282 287 296 294 291 298 301 300 299 296 285 277 269 264 261 262 263 258
287 280 282 276 265 261 256 261 264 259 253 250 253 260 263 270 271 271 272 269 267 272 278 278 276 278 284 293 298 300 292 289 292 287 286 289 283 275 269 266 268 272 273 268
290 272 271 273 271 266 262 260 266 265 259 256 256 258 262 267 271 271 270 273 272 275 275 269 272 288 286 286 288 290 290 287 281 270 272 283 283 278 273 272 273 276 277 274
295 270 261 264 269 271 260 259 276 276 258 254 256 262 265 270 269 267 268 272 275 273 267 264 268 281 287 283 283 284 286 280 267 260 269 285 290 285 282 280 277 276 274 272
305 286 262 252 253 264 257 256 269 293 289 263 263 268 268 268 267 267 267 265 266 271 267 265 273 274 283 289 285 285 282 266 259 260 270 284 290 286 287 286 281 279 279 277
308 294 268 248 243 253 254 255 260 260 273 273 271 267 267 270 269 266 262 258 260 267 271 272 273 272 277 285 283 287 281 264 253 262 275 281 286 289 290 286 280 280 280 278
315 297 274 245 240 245 231 248 267 278 275 277 270 276 284 269 259 256 256 255 256 260 263 268 270 272 279 281 282 285 285 286 289 288 283 287 290 293 294 293 289 284 280 278
325 303 271 244 242 247 228 228 238 244 260 247 219 286 317 268 220 226 242 248 255 262 261 257 257 262 274 283 288 291 296 299 299 294 292 294 295 296 295 292 290 289 285 280
332 297 244 226 215 224 234 224 233 223 210 214 147 335 302 184 172 205 236 250 248 220 209 227 256 272 281 286 289 294 300 299 295 292 293 295 295 293 291 289 288 288 286 284
323 292 252 230 221 221 218 227 225 213 215 217 202 205 219 200 199 214 217 215 220 236 254 264 275 284 289 290 290 293 296 297 297 298 298 298 295 292 290 290 291 291 291 288
316 285 252 232 235 236 224 198 203 212 215 212 219 229 226 208 194 199 206 222 247 265 273 278 282 289 293 295 295 296 300 304 306 306 304 301 299 297 296 297 297 297 296 293
340 299 251 233 231 212 194 181 192 206 213 223 235 245 231 225 202 209 233 261 276 279 284 287 292 302 308 310 311 310 311 313 315 315 311 305 303 300 298 300 303 305 301 294
360 339 259 232 233 225 201 172 184 195 209 227 243 243 241 229 196 215 269 302 300 297 300 303 312 314 312 318 325 323 323 323 323 321 315 309 312 305 299 302 309 313 312 307
358 359 307 234 231 230 208 173 188 202 218 229 240 240 235 219 223 336 342 323 317 316 320 316 310 312 318 324 329 331 332 331 325 323 324 325 326 319 310 313 322 326 331 336
6 4 333 245 228 227 217 188 189 199 212 222 228 238 234 226 242 1 345 334 334 327 329 322 314 319 324 326 330 336 340 340 337 332 332 334 337 339 343 345 349 347 345 355